STARLINK-37783, 69438

Orbit data source: Space-Track

STARLINK-37783, 69438 is a payload satellite owned by SpaceX/Seattle (US) in SSO that was launched on Sun, 07 Jun 2026 UTC via an FALCON 9 launch vehicle from the Air Force Western Test Range (AFWTR). Payload-class satellites include a variety of spacecraft equipped with specific instruments for various scientific and technological missions. These include communications satellites like Starlink; space stations such as the ISS; scientific satellites like the Hubble; Earth observation satellites from companies like Planet Labs, Umbra, and HawkEye 360; GPS; miniature CubeSats for education and research; and military/defense satellites.

Not visible in the next 10 days
Identifier
69438, 2026-126U
Orbit
SSO
Country
Flag of USUS
Related business
Manufacturer
SpaceX/Seattle
Mission
Operational spacecraft
Bus & Motor
STARLINK V2MO, Unknown motor
Mass
575 kg wet, ~530 kg dry
Launch date (UTC)
2026-06-07 (2 weeks ago)
Launch vehicle
FALCON 9
Launch site
Air Force Western Test Range (AFWTR)
Object type
Payload
Rocket body
Debris
Shape & HBR
Unknown
Radar Cross Section
RCS unknown

Expand to show TLE details & history
Last TLE update: 17 hours ago

TLE from 17 hours ago
0 STARLINK-37783
1 69438U 26126U   26171.13556813  .00253157  00000-0  13344-2 0  9996
2 69438  97.2822  31.3151 0002212  83.9637 276.1883 15.79974485  3264
Epoch: 2026-06-20T03:15Z
TLE epoch observation values (Epoch: 2026-06-20T03:15:13.086Z)
Latitude
-0°
Longitude
74.15604°
Altitude
333.528 km
Speed
7.708 km/s
True Right ascension
02h 05m 15s
True Declination
0° 00' 00"
Sunlit
Object was in daylight at epoch
Visualization orbit readout
Latitude
Unknown
Longitude
Unknown
Altitude
Unknown
Speed
Unknown
Apparent Right ascension
Unknown
Apparent Declination
Unknown
Sunlit
N/A
Visualization observer readout
Local Sidereal Time
07:12:13
Azimuth
Unknown
Elevation
Unknown
Doppler factor
Unknown
Orbital elements
Apogee altitude
328.877 km
Perigee altitude
325.911 km
Semi-major axis
6,705.531 km
Eccentricity
0.00022
Inclination
97.2822°
RAAN
31.3151°
Arg. of periapsis
83.9637°
True anomaly
276.1631°
Mean anomaly
276.1883°
Eccentric anomaly
276.1757°
Mean motion
3.9527 °/min
Orbital period
91.08 mins
BSTAR
0.0013344
Loading maneuver chart data...
Computing Atmospheric mass density...
Loading historical data...
Loading historical data...
Loading historical data...
Loading historical data...
Loading historical data...
Loading historical data...
Loading historical data...

Documentation

Showing up to 5 results
|